Tatalina, AK

7:03 PM AKDT on April 19, 2018 (GMT -0800)
Tatalina

Weather History for PATL - January, 2013

Change the Weather History Date:

Thursday, January 3, 2013

  Actual Average Record
Temperature  
Mean Temperature 25 °F -  
Max Temperature 31 °F 4 °F 36 °F (2016)
Min Temperature 18 °F -3 °F -34 °F (2009)
Degree Days  
Heating Degree Days 40    
Moisture  
Dew Point 18 °F    
Average Humidity 69    
Maximum Humidity 88    
Minimum Humidity 55    
Precipitation  
Precipitation 0.00 in - - ()
Sea Level Pressure  
Sea Level Pressure 29.48 in    
Wind  
Wind Speed 7 mph (NNE)    
Max Wind Speed 10 mph    
Max Gust Speed 20 mph    
Visibility 10 miles    
Events      
Averages and records for this station are not official NWS values.
T = Trace of Precipitation, MM = Missing Value Source: NWS Daily Summary

Daily Weather History Graph

Daily Weather History Graph

Search for Another Location

Airport or City:

Astronomy

Jan. 03, 2013 Rise Set
Actual Time 10:55 AM AKST 4:02 PM AKST
Civil Twilight 9:47 AM AKST 5:10 PM AKST
Nautical Twilight 8:44 AM AKST 6:13 PM AKST
Astronomical Twilight 7:47 AM AKST 7:09 PM AKST
Moon No Moon Rise 11:48 AM AKST (1/3)
Length of Visible Light 7h 22m
Length of Day
5h 07m
Waning Gibbous, 64% of the Moon is Illuminated
Jan 3
Waning Gibbous
Jan 4
Last Quarter
Jan 11
New
Jan 18
First Quarter
Jan 26
Full

Hourly Weather History & Observations

Time (AKST) Temp. Windchill Dew Point Humidity Pressure Visibility Wind Dir Wind Speed Gust Speed Precip Events Conditions
12:55 AM 25.0 °F 17.1 °F 20.7 °F 84% 29.43 in 10.0 mi NE 6.9 mph - N/A   Mostly Cloudy
1:55 AM 25.0 °F 17.1 °F 20.1 °F 82% 29.44 in 10.0 mi NNE 6.9 mph - N/A   Mostly Cloudy
3:55 AM 30.2 °F 21.9 °F 19.6 °F 65% 29.42 in 10.0 mi NNE 9.2 mph 19.6 mph N/A   Mostly Cloudy
4:55 AM 29.8 °F 21.5 °F 19.2 °F 65% 29.42 in 10.0 mi NE 9.2 mph 17.3 mph N/A   Mostly Cloudy
5:55 AM 29.3 °F 20.8 °F 19.0 °F 66% 29.42 in 10.0 mi NNE 9.2 mph 18.4 mph N/A   Mostly Cloudy
6:55 AM 28.9 °F 21.1 °F 18.9 °F 66% 29.43 in 10.0 mi NNE 8.1 mph 15.0 mph N/A   Overcast
7:55 AM 28.4 °F 23.3 °F 19.4 °F 69% 29.47 in 10.0 mi ENE 4.6 mph - N/A   Mostly Cloudy
8:55 AM 28.4 °F 22.2 °F 17.6 °F 64% 29.47 in 10.0 mi NNE 5.8 mph - N/A   Overcast
9:55 AM 28.4 °F 19.1 °F 17.6 °F 64% 29.47 in 10.0 mi NNE 10.4 mph 13.8 mph N/A   Mostly Cloudy
10:55 AM 28.4 °F 20.4 °F 17.6 °F 64% 29.49 in 10.0 mi NNE 8.1 mph 15.0 mph N/A   Mostly Cloudy
11:55 AM 30.2 °F 22.6 °F 17.6 °F 60% 29.49 in 10.0 mi NNE 8.1 mph 15.0 mph N/A   Mostly Cloudy
12:55 PM 32.0 °F 25.6 °F 17.6 °F 55% 29.47 in 10.0 mi NNE 6.9 mph - N/A   Scattered Clouds
1:55 PM 31.1 °F 23.7 °F 18.5 °F 60% 29.47 in 10.0 mi NE 8.1 mph - N/A   Partly Cloudy
2:55 PM 31.3 °F 23.9 °F 18.3 °F 59% 29.47 in 10.0 mi NE 8.1 mph - N/A   Partly Cloudy
3:55 PM 30.2 °F 26.7 °F 17.6 °F 60% 29.44 in 10.0 mi Variable 3.5 mph - N/A   Mostly Cloudy
4:55 PM 27.7 °F 22.4 °F 18.1 °F 67% 29.51 in 10.0 mi North 4.6 mph - N/A   Mostly Cloudy
5:55 PM 25.5 °F 18.7 °F 17.6 °F 72% 29.52 in 10.0 mi NNE 5.8 mph - N/A   Partly Cloudy
6:55 PM 25.2 °F 16.5 °F 17.1 °F 71% 29.53 in 10.0 mi NNE 8.1 mph - N/A   Clear
7:55 PM 23.5 °F 16.4 °F 16.3 °F 74% 29.55 in 10.0 mi NNE 5.8 mph - N/A   Clear
8:55 PM 23.5 °F 17.6 °F 16.5 °F 75% 29.56 in 10.0 mi North 4.6 mph - N/A   Clear
9:55 PM 24.8 °F 16.9 °F 17.6 °F 74% 29.50 in 10.0 mi NNE 6.9 mph - N/A   Mostly Cloudy
10:55 PM 18.7 °F 10.6 °F 15.6 °F 88% 29.59 in 10.0 mi South 5.8 mph - N/A   Mostly Cloudy
11:55 PM 24.1 °F 19.7 °F 17.1 °F 75% 29.58 in 10.0 mi ENE 3.5 mph - N/A   Scattered Clouds